1500012000.29,49612,18.56,73864.3,12.11,-25.45,-25.81,0,*4E
1500012001.53,49613,18.56,73864.3,12.11,-25.61,-26.13,0,*41
1500012002.76,49614,18.56,73866.0,12.09,-26.07,-26.39,0,*44
1500012003.96,49615,18.56,73862.3,12.07,-25.09,-25.65,0,*4C
1500012005.19,49616,18.56,73864.8,12.07,-26.07,-26.71,0,*44
1500012006.41,49617,18.56,73866.3,12.07,-26.23,-26.93,0,*4F
1500012007.69,49618,18.56,73864.3,12.01,-26.29,-26.93,0,*4C
1500012008.95,49619,18.56,73860.3,11.99,-26.29,-26.93,0,*4F
1500012010.21,49620,18.56,73860.0,11.97,-24.41,-25.09,0,*47
1500012011.44,49621,18.56,73862.0,11.99,-24.97,-25.75,0,*48
1500012012.7,49622,18.56,73866.0,11.99,-26.17,-26.93,0,*4A
1500012013.95,49623,18.56,73860.5,11.97,-26.23,-26.97,0,*46
1500012015.21,49624,18.56,73862.0,11.95,-24.11,-24.47,0,*4F
1500012016.47,49625,18.56,73862.8,11.95,-22.97,-23.33,0,*42
1500012017.7,49626,18.56,73864.0,11.97,-22.27,-22.57,0,*4B
1500012018.92,49627,18.56,73860.0,12.01,-22.87,-23.39,0,*45
1500012020.18,49628,18.56,73860.3,12.01,-24.67,-25.35,0,*48
1500012021.45,49629,18.56,73860.8,12.01,-25.03,-25.61,0,*4B
1500012022.71,49630,18.56,73858.5,12.01,-23.79,-24.21,0,*4D
1500012023.94,49631,18.56,73862.0,11.99,-23.69,-24.31,0,*4E
1500012025.19,49632,18.56,73856.5,12.01,-23.53,-24.05,0,*41
1500012026.44,49633,18.56,73866.0,12.05,-22.83,-23.29,0,*41
1500012027.7,49634,18.56,73862.3,12.05,-21.73,-22.17,0,*46
1500012028.94,49635,18.56,73862.8,12.07,-21.53,-22.11,0,*41
1500012030.2,49636,18.56,73862.8,12.09,-24.25,-25.09,0,*46
1500012031.44,49637,18.56,73862.5,12.07,-23.75,-24.25,0,*44
1500012032.69,49638,18.56,73866.3,12.09,-23.53,-24.05,0,*43
1500012033.94,49639,18.56,73862.8,12.09,-23.23,-23.75,0,*45
1500012035.2,49640,18.56,73860.8,12.09,-24.05,-24.71,0,*4B
1500012036.42,49641,18.56,73860.5,12.09,-23.39,-24.05,0,*41
1500012037.64,49642,18.56,73862.0,12.09,-23.13,-23.89,0,*49
1500012038.87,49643,18.56,73866.8,12.09,-22.83,-23.43,0,*46
1500012040.08,49644,18.56,73864.5,12.11,-22.37,-22.97,0,*4F
1500012041.31,49645,18.56,73866.0,12.13,-22.37,-22.93,0,*48
1500012042.54,49646,18.56,73866.3,12.15,-23.43,-24.11,0,*43
1500012043.8,49647,18.56,73862.3,12.13,-24.21,-24.97,0,*49
1500012045.06,49648,18.56,73864.0,12.11,-24.83,-25.45,0,*42
1500012046.29,49649,18.56,73864.8,12.11,-22.93,-23.49,0,*4E
1500012047.53,49650,18.56,73866.5,12.15,-22.17,-22.83,0,*49
1500012048.79,49651,18.56,73864.3,12.13,-22.37,-23.03,0,*45
1500012050.02,49652,18.56,73864.3,12.15,-22.93,-23.53,0,*4B
1500012051.22,49653,18.56,73864.0,12.15,-22.87,-23.59,0,*45
1500012052.47,49654,18.56,73866.8,12.17,-22.17,-22.83,0,*4F
1500012053.75,49655,18.56,73866.3,12.17,-22.47,-23.29,0,*4A
1500012054.98,49656,18.56,73866.3,12.19,-22.63,-23.33,0,*4A
1500012056.23,49657,18.56,73866.3,12.21,-22.87,-23.53,0,*4C
1500012057.47,49658,18.56,73864.0,12.21,-21.83,-22.41,0,*46
1500012058.74,49659,18.56,73866.5,12.21,-22.53,-23.23,0,*4C
1500012059.98,49660,18.56,73866.3,12.23,-23.49,-24.15,0,*4C
1500012061.21,49661,18.56,73866.0,12.23,-23.95,-24.77,0,*48
1500012062.46,49662,18.56,73864.5,12.23,-23.33,-23.99,0,*40
1500012063.7,49663,18.56,73862.3,12.23,-24.61,-25.55,0,*47
1500012064.92,49664,18.56,73864.0,12.23,-23.49,-24.47,0,*4F
1500012066.2,49665,18.56,73860.5,12.21,-23.99,-24.83,0,*49
1500012067.43,49666,18.56,73864.0,12.21,-24.05,-24.97,0,*4D
1500012068.7,49667,18.56,73864.0,12.21,-24.71,-25.61,0,*47
1500012069.92,49668,18.56,73862.0,12.19,-23.39,-24.15,0,*4A
1500012071.13,49669,18.56,73866.8,12.19,-23.09,-23.89,0,*4A
1500012072.41,49670,18.56,73866.8,12.21,-25.97,-26.97,0,*42
1500012073.64,49671,18.56,73864.5,12.15,-25.39,-26.29,0,*45
1500012074.9,49672,18.56,73866.3,12.15,-24.25,-24.67,0,*42
1500012076.14,49673,18.56,73868.5,12.17,-24.51,-25.39,0,*48
1500012077.35,49674,18.56,73866.8,12.15,-23.79,-24.61,0,*4C
1500012078.58,49675,18.56,73864.0,12.15,-25.71,-26.61,0,*41
1500012079.87,49676,18.56,73860.0,12.13,-26.77,-28.05,0,*4D
1500012081.13,49677,18.56,73860.8,12.11,-25.97,-26.97,0,*46
1500012082.36,49678,18.56,73864.8,12.09,-25.65,-26.65,0,*40
1500012083.58,49679,18.56,73864.5,12.07,-25.09,-26.17,0,*40
1500012084.86,49680,18.56,73860.8,12.05,-27.61,-28.75,0,*42
1500012086.09,49681,18.56,73862.8,12.01,-27.51,-28.69,0,*49
1500012087.35,49682,18.56,73862.3,11.97,-25.55,-26.65,0,*42
1500012088.63,49683,18.56,73866.3,11.97,-24.67,-25.81,0,*4A
1500012089.92,49684,18.56,73862.8,11.97,-26.17,-27.35,0,*45
1500012091.17,49685,18.56,73860.5,11.95,-25.29,-26.45,0,*4E
1500012092.43,49686,18.56,73862.8,11.95,-24.71,-25.87,0,*4C
1500012093.66,49687,18.56,73860.5,11.93,-24.87,-25.91,0,*45
1500012094.88,49688,18.56,73862.8,11.93,-23.95,-24.97,0,*49
1500012096.16,49689,18.56,73860.8,11.95,-23.33,-24.15,0,*48
1500012097.4,49690,18.56,73860.8,11.97,-23.69,-24.57,0,*4B
1500012098.63,49691,18.56,73862.3,11.97,-22.63,-23.59,0,*48
1500012099.87,49692,18.56,73862.3,11.97,-22.41,-23.29,0,*4C
1500012101.13,49693,18.56,73864.0,11.99,-23.23,-24.21,0,*49
1500012102.36,49694,18.56,73862.8,11.99,-22.53,-23.53,0,*4A
1500012103.62,49695,18.56,73862.0,12.01,-23.79,-24.83,0,*4A
1500012104.9,49696,18.56,73866.3,12.05,-23.03,-24.15,0,*4F
1500012106.12,49697,18.56,73862.8,12.07,-23.09,-24.11,0,*42
1500012107.39,49698,18.56,73866.5,12.05,-24.41,-25.61,0,*42
1500012108.67,49699,18.56,73862.3,12.01,-23.85,-25.03,0,*4C
1500012109.96,49700,18.56,73862.8,12.01,-23.03,-23.85,0,*4B
1500012111.24,49701,18.56,73862.0,12.05,-23.65,-24.71,0,*42
1500012112.48,49702,18.56,73862.0,12.05,-22.87,-23.95,0,*41
1500012113.72,49703,18.56,73862.8,12.05,-22.37,-23.43,0,*40
1500012114.97,49704,18.56,73866.8,12.01,-22.83,-23.69,0,*44
1500012116.22,49705,18.56,73864.0,12.07,-22.31,-23.29,0,*4E
1500012117.47,49706,18.56,73862.8,12.09,-22.17,-23.13,0,*4E
1500012118.72,49707,18.56,73860.8,12.09,-22.63,-23.69,0,*41
1500012119.97,49708,18.56,73864.3,12.09,-22.73,-23.75,0,*42
1500012121.22,49709,18.56,73864.5,12.13,-22.11,-23.19,0,*46
1500012122.5,49710,18.56,73866.0,12.13,-22.21,-23.33,0,*45
1500012123.7,49711,18.56,73864.3,12.15,-22.63,-23.79,0,*4A
1500012124.95,49712,18.56,73864.5,12.15,-23.03,-24.15,0,*43
1500012126.19,49713,18.56,73864.5,12.13,-24.35,-25.65,0,*40
1500012127.44,49714,18.56,73864.0,12.13,-23.89,-25.03,0,*47
1500012128.69,49715,18.56,73866.8,12.15,-23.65,-24.67,0,*41
1500012129.95,49716,18.56,73862.5,12.11,-23.53,-24.67,0,*43
1500012131.2,49717,18.56,73864.3,12.13,-22.57,-23.69,0,*4C
1500012132.43,49718,18.56,73860.3,12.13,-22.37,-23.39,0,*40
1500012133.68,49719,18.56,73864.0,12.17,-22.11,-23.23,0,*4A
1500012134.94,49720,18.56,73860.5,12.17,-21.87,-22.83,0,*47
1500012136.18,49721,18.56,73864.5,12.19,-22.11,-23.23,0,*4F
1500012137.39,49722,18.56,73864.8,12.19,-23.09,-24.47,0,*41
1500012138.66,49723,18.56,73860.0,12.19,-24.71,-25.97,0,*44
1500012139.89,49724,18.56,73858.3,12.19,-23.59,-24.83,0,*4A
1500012141.1,49725,18.56,73862.5,12.19,-23.75,-24.97,0,*40
1500012142.36,49726,18.56,73866.8,12.17,-25.03,-26.39,0,*4C
1500012143.59,49727,18.56,73862.8,12.15,-24.11,-25.39,0,*4E
1500012144.84,49728,18.56,73864.5,12.15,-23.03,-24.11,0,*4E
1500012146.1,49729,18.56,73862.0,12.17,-25.39,-26.77,0,*40
1500012147.35,49730,18.56,73860.5,12.15,-25.29,-26.55,0,*4B
1500012148.6,49731,18.56,73864.8,12.13,-23.85,-25.13,0,*4D
1500012149.88,49732,18.56,73862.5,12.13,-23.85,-24.87,0,*42
1500012151.13,49733,18.56,73860.5,12.13,-23.09,-24.15,0,*4C
1500012152.36,49734,18.56,73862.0,12.11,-23.33,-24.51,0,*40
1500012153.62,49735,18.56,73862.3,12.13,-23.19,-24.31,0,*4D
1500012154.87,49736,18.56,73862.0,12.13,-23.03,-23.89,0,*41
1500012156.1,49737,18.56,73862.8,12.17,-22.03,-23.13,0,*46
1500012157.35,49738,18.56,73866.8,12.17,-23.13,-24.41,0,*49
1500012158.6,49739,18.56,73864.3,12.17,-23.53,-24.57,0,*4B
1500012159.84,49740,18.56,73862.3,12.17,-24.05,-25.23,0,*43
1500012161.05,49741,18.56,73858.5,12.15,-23.89,-25.09,0,*4B
1500012162.26,49742,18.56,73866.3,12.15,-23.43,-24.47,0,*45
1500012163.49,49743,18.56,73862.8,12.17,-22.57,-23.75,0,*44
1500012164.75,49744,18.56,73862.8,12.17,-23.65,-24.77,0,*46
1500012166.0,49745,18.56,73860.5,12.17,-23.53,-24.77,0,*42
1500012167.23,49746,18.56,73866.8,12.15,-23.59,-24.67,0,*48
1500012168.49,49747,18.56,73860.3,12.17,-23.29,-24.51,0,*49
1500012169.74,49748,18.56,73866.8,12.17,-23.09,-24.25,0,*47
1500012170.98,49749,18.56,73864.3,12.15,-23.13,-24.25,0,*4F
1500012172.2,49750,18.56,73866.5,12.17,-22.67,-23.79,0,*49
1500012173.41,49751,18.56,73864.8,12.19,-22.63,-23.75,0,*4E
1500012174.63,49752,18.56,73864.8,12.21,-22.63,-23.89,0,*45
1500012175.85,49753,18.56,73860.8,12.19,-24.31,-25.49,0,*44
1500012177.06,49754,18.56,73860.3,12.19,-24.35,-25.65,0,*49
1500012178.31,49755,18.56,73860.5,12.19,-24.21,-25.49,0,*43
1500012179.53,49756,18.56,73862.0,12.19,-24.31,-25.49,0,*41
1500012180.76,49757,18.56,73858.5,12.19,-23.19,-24.31,0,*43
1500012181.99,49758,18.56,73856.0,12.17,-23.09,-24.05,0,*44
1500012183.24,49759,18.56,73856.8,12.17,-22.31,-23.39,0,*47
1500012184.47,49760,18.56,73860.0,12.19,-22.11,-23.19,0,*43
1500012185.7,49761,18.56,73862.3,12.19,-22.87,-24.15,0,*46
1500012186.94,49762,18.56,73862.8,12.19,-24.47,-25.71,0,*4C
1500012188.21,49763,18.56,73860.5,12.21,-24.21,-25.49,0,*4D
1500012189.44,49764,18.56,73860.8,12.19,-23.09,-24.15,0,*44
1500012190.66,49765,18.56,73862.3,12.19,-22.27,-23.33,0,*4B
1500012191.95,49766,18.56,73860.0,12.21,-22.77,-23.85,0,*4B
1500012193.19,49767,18.56,73862.8,12.21,-22.63,-23.69,0,*4D
1500012194.45,49768,18.56,73864.0,12.21,-22.37,-23.53,0,*4A
1500012195.7,49769,18.56,73864.8,12.21,-22.41,-23.49,0,*41
1500012196.92,49770,18.56,73862.8,12.23,-24.93,-26.13,0,*48
1500012198.12,49771,18.56,73864.0,12.23,-25.23,-26.39,0,*4B
1500012199.36,49772,18.56,73860.8,12.19,-24.21,-25.61,0,*4C
1500012200.6,49773,18.56,73860.3,12.19,-22.93,-23.85,0,*4E
1500012201.83,49774,18.56,73864.3,12.21,-23.09,-24.05,0,*4F
1500012203.05,49775,18.56,73864.3,12.23,-22.67,-23.65,0,*44
1500012204.3,49776,18.56,73864.0,12.21,-23.33,-24.57,0,*43
1500012205.55,49777,18.56,73862.8,12.21,-25.19,-26.29,0,*47
1500012206.8,49778,18.56,73866.3,12.21,-23.69,-24.57,0,*42
1500012208.06,49779,18.56,73862.8,12.19,-23.19,-24.21,0,*4E
1500012209.31,49780,18.56,73866.3,12.21,-22.73,-23.75,0,*48
1500012210.55,49781,18.56,73866.0,12.19,-24.05,-25.45,0,*40
1500012211.8,49782,18.56,73866.0,12.21,-23.19,-24.31,0,*40
1500012213.05,49783,18.56,73862.0,12.21,-23.49,-24.57,0,*44
1500012214.33,49784,18.56,73862.0,12.21,-24.15,-25.45,0,*4F
1500012215.59,49785,18.56,73862.3,12.21,-24.21,-25.49,0,*45
1500012216.84,49786,18.56,73864.3,12.19,-24.51,-25.71,0,*41
1500012218.08,49787,18.56,73860.8,12.19,-24.51,-25.71,0,*40
1500012219.3,49788,18.56,73860.5,12.19,-24.31,-25.49,0,*42
1500012220.53,49789,18.56,73862.3,12.15,-25.49,-26.71,0,*49
1500012221.75,49790,18.56,73864.3,12.15,-24.31,-25.61,0,*4D
1500012222.98,49791,18.56,73862.8,12.15,-23.85,-24.93,0,*48
1500012224.26,49792,18.56,73862.8,12.17,-23.65,-24.87,0,*42
1500012225.54,49793,18.56,73860.5,12.17,-23.95,-24.83,0,*48
1500012226.79,49794,18.56,73862.5,12.15,-23.03,-23.99,0,*4E
1500012228.02,49795,18.56,73864.5,12.17,-22.97,-24.05,0,*43
1500012229.26,49796,18.56,73862.8,12.17,-23.75,-24.77,0,*48
1500012230.47,49797,18.56,73864.8,12.19,-23.75,-24.77,0,*47
1500012231.74,49798,18.56,73864.0,12.17,-24.35,-25.55,0,*44
1500012233.0,49799,18.56,73860.0,12.17,-23.75,-24.87,0,*48
1500012234.29,49800,18.56,73864.3,12.17,-24.71,-25.75,0,*48
1500012235.53,49801,18.56,73860.8,12.15,-24.77,-25.97,0,*41
1500012236.76,49802,18.56,73866.3,12.15,-24.15,-25.23,0,*49
1500012237.98,49803,18.56,73866.3,12.15,-23.13,-24.15,0,*4D
1500012239.23,49804,18.56,73864.3,12.15,-22.73,-23.69,0,*41
1500012240.46,49805,18.56,73864.8,12.15,-23.65,-24.61,0,*49
1500012241.67,49806,18.56,73866.8,12.15,-23.59,-24.61,0,*45
1500012242.9,49807,18.56,73866.8,12.17,-23.89,-25.09,0,*44
1500012244.15,49808,18.56,73866.8,12.17,-24.93,-26.17,0,*4B
1500012245.38,49809,18.56,73862.8,12.15,-24.11,-25.13,0,*45
1500012246.63,49810,18.56,73866.3,12.15,-24.41,-25.61,0,*4D
1500012247.88,49811,18.56,73864.8,12.15,-23.29,-24.15,0,*47
1500012249.16,49812,18.56,73862.8,12.13,-24.87,-26.29,0,*4C
1500012250.41,49813,18.56,73860.3,12.13,-25.13,-26.17,0,*4C
1500012251.62,49814,18.56,73866.8,12.11,-24.51,-25.87,0,*44
1500012252.85,49815,18.56,73866.5,12.11,-24.97,-26.13,0,*41
1500012254.11,49816,18.56,73866.3,12.11,-26.13,-27.35,0,*49
1500012255.37,49817,18.56,73864.8,12.09,-26.65,-27.83,0,*4D
1500012256.61,49818,18.56,73862.8,12.07,-27.83,-29.29,0,*4B
1500012257.84,49819,18.56,73858.8,12.01,-27.77,-28.85,0,*40
1500012259.07,49820,18.56,73860.0,11.99,-25.19,-26.29,0,*4A
1500012260.33,49821,18.56,73862.5,11.99,-23.99,-25.03,0,*4E
1500012261.59,49822,18.56,73856.5,11.97,-23.53,-24.47,0,*44
1500012262.84,49823,18.56,73862.0,11.97,-23.53,-24.57,0,*44
1500012264.08,49824,18.56,73860.8,11.99,-24.61,-25.75,0,*4A
1500012265.34,49825,18.56,73860.3,11.99,-23.99,-25.03,0,*4A
1500012266.55,49826,18.56,73860.8,11.99,-24.05,-25.09,0,*41
1500012267.78,49827,18.56,73864.3,11.99,-23.69,-24.61,0,*42
1500012269.01,49828,18.56,73862.3,11.99,-24.05,-24.87,0,*48
1500012270.28,49829,18.56,73862.0,12.01,-24.35,-25.29,0,*4D
1500012271.51,49830,18.56,73862.8,11.99,-24.15,-25.13,0,*4C
1500012272.74,49831,18.56,73860.0,11.99,-24.21,-25.19,0,*40
1500012273.96,49832,18.56,73864.0,11.99,-24.51,-25.61,0,*4B
1500012275.21,49833,18.56,73862.3,11.99,-23.69,-24.67,0,*41
1500012276.47,49834,18.56,73864.0,11.99,-24.87,-25.97,0,*4F
1500012277.73,49835,18.56,73860.0,11.99,-23.99,-24.87,0,*46
1500012278.95,49836,18.56,73860.3,11.99,-23.69,-24.61,0,*42
1500012280.18,49837,18.56,73860.3,11.99,-23.33,-24.31,0,*49
1500012281.44,49838,18.56,73856.8,12.01,-23.39,-24.21,0,*4F
1500012282.69,49839,18.56,73856.5,12.01,-23.49,-24.35,0,*4C
1500012283.95,49840,18.56,73860.3,12.05,-23.43,-24.25,0,*4D
1500012285.23,49841,18.56,73862.0,12.05,-23.19,-23.99,0,*43
1500012286.46,49842,18.56,73860.8,12.05,-23.59,-24.57,0,*41
1500012287.73,49843,18.56,73862.8,12.05,-23.29,-23.99,0,*42
1500012288.94,49844,18.56,73866.5,12.07,-23.79,-24.77,0,*45
1500012290.16,49845,18.56,73862.3,12.07,-23.79,-24.67,0,*45
1500012291.4,49846,18.56,73862.5,12.07,-24.25,-25.35,0,*4E
1500012292.67,49847,18.56,73864.3,12.05,-24.47,-25.55,0,*4F
1500012293.9,49848,18.56,73866.3,12.01,-25.49,-26.61,0,*4F
1500012295.16,49849,18.56,73864.5,12.01,-24.97,-25.97,0,*46
1500012296.44,49850,18.56,73860.5,12.01,-26.29,-27.35,0,*43
1500012297.68,49851,18.56,73864.8,11.99,-26.17,-27.29,0,*40
1500012298.93,49852,18.56,73862.0,11.97,-30.95,-32.57,0,*4D
1500012300.13,49853,18.56,73862.8,11.89,-31.67,-33.03,0,*4F
1500012301.36,49854,18.56,73856.0,11.85,-30.89,-32.23,0,*46
1500012302.61,49855,18.56,73864.8,11.73,-30.61,-31.91,0,*42
1500012303.87,49856,18.56,73860.3,11.69,-28.43,-29.35,0,*44
1500012305.1,49857,18.56,73862.5,11.69,-28.43,-29.45,0,*42
1500012306.36,49858,18.56,73862.0,11.67,-26.29,-27.29,0,*45
1500012307.6,49859,18.56,73862.5,11.65,-26.77,-27.77,0,*46
1500012308.82,49860,18.56,73860.5,11.65,-25.45,-26.39,0,*45
1500012310.05,49861,18.56,73860.5,11.65,-25.03,-25.91,0,*47
1500012311.28,49862,18.56,73864.0,11.63,-25.03,-25.91,0,*42
1500012312.51,49863,18.56,73860.5,11.63,-25.23,-26.17,0,*4C
1500012313.75,49864,18.56,73862.3,11.65,-24.25,-25.09,0,*46
1500012315.03,49865,18.56,73862.8,11.67,-25.29,-26.33,0,*42
1500012316.28,49866,18.56,73862.3,11.65,-28.09,-29.13,0,*41
1500012317.56,49867,18.56,73862.5,11.61,-27.61,-28.79,0,*48
1500012318.84,49868,18.56,73862.5,11.61,-27.45,-28.47,0,*4C
1500012320.1,49869,18.56,73864.3,11.57,-26.03,-26.97,0,*48
1500012321.34,49870,18.56,73860.3,11.59,-25.75,-26.65,0,*41
1500012322.59,49871,18.56,73864.3,11.57,-25.13,-26.29,0,*46
1500012323.84,49872,18.56,73860.3,11.57,-25.45,-26.45,0,*4C
1500012325.09,49873,18.56,73860.0,11.57,-26.29,-27.29,0,*4F
1500012326.33,49874,18.56,73862.5,11.53,-25.87,-26.87,0,*4E
1500012327.58,49875,18.56,73862.3,11.53,-25.09,-26.17,0,*40
1500012328.84,49876,18.56,73862.5,11.53,-24.61,-25.55,0,*49
1500012330.07,49877,18.56,73860.8,11.53,-25.19,-26.23,0,*44
1500012331.3,49878,18.56,73864.8,11.51,-25.75,-26.87,0,*4D
1500012332.56,49879,18.56,73862.3,11.51,-26.17,-27.23,0,*44
1500012333.76,49880,18.56,73862.8,11.51,-25.91,-26.87,0,*40
1500012334.96,49881,18.56,73866.5,11.51,-24.93,-25.91,0,*46
1500012336.22,49882,18.56,73862.8,11.53,-24.05,-25.03,0,*43
1500012337.48,49883,18.56,73862.5,11.51,-26.17,-27.19,0,*48
1500012338.74,49884,18.56,73862.0,11.51,-24.87,-25.75,0,*4C
1500012339.95,49885,18.56,73860.3,11.51,-24.05,-24.93,0,*4E
1500012341.21,49886,18.56,73860.0,11.53,-24.05,-25.03,0,*47
1500012342.47,49887,18.56,73862.8,11.53,-24.11,-25.09,0,*49
1500012343.71,49888,18.56,73860.3,11.53,-24.57,-25.49,0,*40
1500012344.95,49889,18.56,73862.8,11.53,-24.35,-25.23,0,*49
1500012346.18,49890,18.56,73864.3,11.57,-23.59,-24.51,0,*4C
1500012347.41,49891,18.56,73864.5,11.57,-23.59,-24.51,0,*4D
1500012348.67,49892,18.56,73864.3,11.59,-24.41,-25.29,0,*40
1500012349.9,49893,18.56,73864.0,11.59,-23.43,-24.25,0,*49
1500012351.18,49894,18.56,73864.3,11.61,-23.19,-23.95,0,*46
1500012352.44,49895,18.56,73862.0,11.61,-24.83,-26.07,0,*4D
1500012353.72,49896,18.56,73860.3,11.61,-26.81,-27.83,0,*43
1500012354.98,49897,18.56,73862.5,11.57,-25.35,-26.29,0,*4A
1500012356.24,49898,18.56,73860.8,11.57,-24.67,-25.49,0,*46
1500012357.49,49899,18.56,73860.0,11.57,-24.21,-25.19,0,*40
1500012358.72,49900,18.56,73864.5,11.59,-25.29,-26.39,0,*47
1500012359.96,49901,18.56,73860.8,11.57,-24.31,-25.13,0,*4B
1500012361.21,49902,18.56,73862.3,11.59,-23.85,-24.67,0,*4C
1500012362.45,49903,18.56,73862.3,11.57,-24.31,-25.19,0,*43
1500012363.69,49904,18.56,73862.0,11.61,-24.47,-25.39,0,*42
1500012364.92,49905,18.56,73862.0,11.59,-24.67,-25.49,0,*4D
1500012366.15,49906,18.56,73860.8,11.59,-23.69,-24.61,0,*4C
1500012367.4,49907,18.56,73860.0,11.57,-27.19,-28.31,0,*49
1500012368.67,49908,18.56,73860.8,11.57,-25.81,-26.81,0,*40
1500012369.91,49909,18.56,73860.8,11.53,-25.35,-26.39,0,*49
1500012371.14,49910,18.56,73862.0,11.53,-24.35,-25.19,0,*41
1500012372.38,49911,18.56,73860.5,11.53,-23.75,-24.57,0,*48
1500012373.65,49912,18.56,73862.3,11.57,-25.81,-26.97,0,*4C
1500012374.92,49913,18.56,73862.5,11.53,-25.03,-26.03,0,*4E
1500012376.18,49914,18.56,73862.3,11.53,-24.41,-25.23,0,*4F
1500012377.44,49915,18.56,73862.3,11.53,-24.87,-26.03,0,*45
1500012378.64,49916,18.56,73862.8,11.51,-25.23,-26.23,0,*49
1500012379.92,49917,18.56,73858.8,11.53,-24.11,-25.03,0,*4B
1500012381.15,49918,18.56,73860.8,11.53,-25.61,-26.65,0,*41
1500012382.39,49919,18.56,73856.8,11.51,-24.05,-24.87,0,*4F
1500012383.63,49920,18.56,73858.0,11.53,-24.61,-25.49,0,*46
1500012384.89,49921,18.56,73858.5,11.53,-25.39,-26.33,0,*45
1500012386.12,49922,18.56,73856.3,11.53,-24.35,-25.23,0,*49
1500012387.35,49923,18.63,73860.5,11.53,-23.59,-24.51,0,*41
1500012388.61,49924,18.56,73856.0,11.53,-23.65,-24.57,0,*4F
1500012389.86,49925,18.56,73856.3,11.53,-23.95,-25.23,0,*43
1500012391.1,49926,18.56,73862.5,11.53,-24.51,-25.35,0,*48
1500012392.33,49927,18.56,73862.0,11.57,-23.59,-24.51,0,*41
1500012393.59,49928,18.56,73862.0,11.57,-25.13,-26.17,0,*46
1500012394.82,49929,18.56,73864.0,11.57,-24.57,-25.49,0,*4E
1500012396.05,49930,18.56,73856.3,11.57,-25.65,-26.87,0,*47
1500012397.3,49931,18.56,73860.0,11.57,-24.05,-24.87,0,*43
1500012398.57,49932,18.56,73860.0,11.53,-23.75,-24.71,0,*4D
1500012399.83,49933,18.56,73862.3,11.57,-24.21,-25.13,0,*4B
1500012401.07,49934,18.56,73858.0,11.57,-24.47,-25.49,0,*43
1500012402.35,49935,18.56,73858.8,11.57,-23.99,-24.71,0,*4C
1500012403.58,49936,18.56,73858.5,11.59,-23.69,-24.47,0,*4B
1500012404.81,49937,18.56,73862.5,11.59,-24.41,-25.23,0,*44
1500012406.07,49938,18.56,73856.5,11.57,-24.57,-25.71,0,*45
1500012407.33,49939,18.56,73862.8,11.57,-25.87,-26.81,0,*44
1500012408.59,49940,18.56,73858.0,11.57,-26.33,-27.51,0,*4A
1500012409.84,49941,18.56,73856.5,11.53,-26.55,-27.55,0,*4B
1500012411.07,49942,18.56,73856.5,11.51,-26.93,-27.71,0,*46
1500012412.31,49943,18.56,73856.8,11.51,-26.33,-27.55,0,*4B
1500012413.56,49944,18.56,73856.0,11.49,-24.97,-26.29,0,*43
1500012414.82,49945,18.56,73858.8,11.49,-24.41,-25.23,0,*40
1500012416.08,49946,18.56,73860.5,11.49,-24.11,-24.93,0,*4C
1500012417.35,49947,18.56,73858.0,11.49,-23.95,-24.83,0,*47
1500012418.6,49948,18.56,73856.5,11.49,-23.65,-24.57,0,*4E
1500012419.86,49949,18.56,73862.8,11.49,-23.33,-24.31,0,*4C
1500012421.09,49950,18.56,73856.5,11.51,-23.89,-24.71,0,*48
1500012422.32,49951,18.56,73858.5,11.53,-25.39,-26.49,0,*4F
1500012423.58,49952,18.56,73854.5,11.51,-26.17,-27.19,0,*45
1500012424.77,49953,18.63,73858.0,11.51,-24.93,-25.91,0,*48
1500012425.98,49954,18.56,73854.3,11.51,-25.23,-26.39,0,*44
1500012427.21,49955,18.56,73852.0,11.51,-25.35,-26.33,0,*48
1500012428.45,49956,18.56,73858.0,11.49,-24.57,-25.65,0,*47
1500012429.71,49957,18.56,73856.5,11.49,-24.41,-25.39,0,*48
1500012431.0,49958,18.56,73860.3,11.49,-24.41,-25.55,0,*4D
1500012432.28,49959,18.56,73852.8,11.49,-25.75,-26.97,0,*47
1500012433.51,49960,18.56,73858.8,11.49,-25.39,-26.39,0,*41
1500012434.76,49961,18.56,73858.0,11.49,-24.67,-25.87,0,*4C
1500012436.0,49962,18.56,73852.8,11.47,-24.83,-25.87,0,*4B
1500012437.24,49963,18.56,73856.3,11.47,-26.49,-27.61,0,*44
1500012438.47,49964,18.56,73858.8,11.45,-27.51,-28.69,0,*4E
1500012439.73,49965,18.56,73858.5,11.43,-24.87,-25.75,0,*41
1500012440.95,49966,18.56,73858.0,11.43,-24.51,-25.39,0,*41
1500012442.21,49967,18.56,73856.3,11.45,-23.75,-24.71,0,*4A
1500012443.5,49968,18.56,73856.8,11.45,-24.15,-25.03,0,*40
1500012444.76,49969,18.56,73856.3,11.45,-24.05,-25.03,0,*40
1500012446.04,49970,18.56,73856.3,11.45,-23.99,-25.03,0,*4A
1500012447.32,49971,18.56,73858.5,11.45,-25.03,-25.97,0,*43
1500012448.56,49972,18.56,73858.0,11.47,-25.13,-26.29,0,*45
1500012449.85,49973,18.56,73856.5,11.45,-26.81,-28.21,0,*48
1500012451.07,49974,18.56,73856.0,11.41,-27.89,-29.07,0,*47
1500012452.3,49975,18.56,73858.0,11.39,-26.23,-27.45,0,*40
1500012453.54,49976,18.56,73860.0,11.39,-25.39,-26.77,0,*4B
1500012454.81,49977,18.63,73860.0,11.37,-26.33,-27.51,0,*48
1500012456.03,49978,18.56,73858.3,11.35,-26.65,-27.67,0,*43
1500012457.24,49979,18.56,73856.0,11.35,-26.03,-27.13,0,*41
1500012458.48,49980,18.56,73852.5,11.31,-25.65,-26.87,0,*4C
1500012459.71,49981,18.63,73856.5,11.29,-25.23,-26.29,0,*42
1500012460.99,49982,18.56,73856.5,11.29,-24.71,-25.71,0,*49
1500012462.25,49983,18.56,73856.0,11.31,-24.87,-25.87,0,*41
1500012463.49,49984,18.56,73856.5,11.31,-25.49,-26.65,0,*4A
1500012464.73,49985,18.56,73854.5,11.29,-24.61,-25.75,0,*4B
1500012466.02,49986,18.56,73852.3,11.31,-24.67,-25.71,0,*43
1500012467.28,49987,18.56,73852.8,11.31,-25.49,-26.55,0,*4A
1500012468.54,49988,18.56,73858.0,11.31,-25.35,-26.55,0,*4E
1500012469.76,49989,18.56,73856.8,11.31,-25.23,-26.49,0,*45
1500012470.97,49990,18.56,73856.0,11.29,-26.39,-27.55,0,*40
1500012472.2,49991,18.56,73852.5,11.29,-26.23,-27.45,0,*4B
1500012473.43,49992,18.56,73852.3,11.27,-25.91,-27.13,0,*4F
1500012474.64,49993,18.56,73858.5,11.25,-25.49,-26.65,0,*49
1500012475.89,49994,18.56,73854.0,11.25,-25.81,-26.97,0,*47
1500012477.15,49995,18.56,73856.3,11.27,-25.19,-25.97,0,*46
1500012478.41,49996,18.56,73856.0,11.23,-25.19,-26.29,0,*47
1500012479.66,49997,18.56,73854.3,11.23,-24.47,-25.49,0,*49
1500012480.91,49998,18.56,73856.8,11.23,-25.45,-26.49,0,*46
1500012482.18,49999,18.56,73858.0,11.23,-24.83,-25.91,0,*4A
1500012483.42,50000,18.56,73858.8,11.23,-24.97,-26.03,0,*46
1500012484.68,50001,18.56,73858.8,11.23,-25.65,-26.77,0,*48
1500012485.89,50002,18.63,73862.0,11.21,-25.65,-26.87,0,*46
1500012487.11,50003,18.56,73860.0,11.21,-25.39,-26.39,0,*4B
1500012488.36,50004,18.56,73856.3,11.21,-24.57,-25.55,0,*4C
1500012489.57,50005,18.56,73856.3,11.21,-25.87,-27.03,0,*40
1500012490.84,50006,18.56,73858.5,11.21,-25.55,-26.71,0,*48
1500012492.1,50007,18.56,73854.8,11.19,-25.13,-26.29,0,*4D
1500012493.35,50008,18.56,73856.8,11.19,-24.77,-25.87,0,*46
1500012494.62,50009,18.56,73856.8,11.21,-24.41,-25.55,0,*46
1500012495.86,50010,18.56,73852.8,11.21,-26.03,-27.23,0,*49
1500012497.12,50011,18.56,73854.8,11.17,-26.17,-27.45,0,*48